TimeCST,TemperatureF,Dew PointF,Humidity,Sea Level PressureIn,VisibilityMPH,Wind Direction,Wind SpeedMPH,Gust SpeedMPH,PrecipitationIn,Events,Conditions,WindDirDegrees,DateUTC
12:53 AM,36.0,33.1,89,29.97,10.0,SE,6.9,-,N/A,,Clear,130,2011-12-22 06:53:00
1:53 AM,37.0,34.0,89,29.97,9.0,ESE,5.8,-,N/A,,Clear,110,2011-12-22 07:53:00
2:53 AM,37.0,34.0,89,29.96,9.0,Calm,Calm,-,N/A,,Clear,0,2011-12-22 08:53:00
3:53 AM,36.0,34.0,93,29.95,9.0,SE,4.6,-,N/A,,Clear,130,2011-12-22 09:53:00
4:53 AM,37.0,34.0,89,29.96,10.0,SE,4.6,-,N/A,,Clear,140,2011-12-22 10:53:00
5:53 AM,37.0,35.1,93,29.98,10.0,SE,5.8,-,N/A,,Clear,140,2011-12-22 11:53:00
6:53 AM,37.9,35.1,89,30.02,10.0,Calm,Calm,-,N/A,,Clear,0,2011-12-22 12:53:00
7:53 AM,37.4,35.6,93,30.03,7.0,NE,3.5,-,N/A,,Scattered Clouds,40,2011-12-22 13:53:00
8:53 AM,37.0,35.1,93,30.06,7.0,NNW,6.9,-,N/A,,Scattered Clouds,330,2011-12-22 14:53:00
9:53 AM,39.0,36.0,89,30.11,8.0,North,4.6,-,N/A,,Mostly Cloudy,360,2011-12-22 15:53:00
10:53 AM,45.0,37.9,76,30.14,10.0,North,8.1,-,N/A,,Mostly Cloudy,350,2011-12-22 16:53:00
11:53 AM,48.9,37.9,66,30.12,10.0,NNE,10.4,-,N/A,,Scattered Clouds,20,2011-12-22 17:53:00
12:05 PM,48.2,37.4,66,30.11,10.0,North,12.7,-,N/A,,Mostly Cloudy,350,2011-12-22 18:05:00
12:53 PM,48.0,37.9,68,30.10,10.0,North,13.8,-,N/A,,Mostly Cloudy,10,2011-12-22 18:53:00
1:53 PM,45.0,37.0,74,30.11,10.0,North,16.1,21.9,N/A,,Overcast,10,2011-12-22 19:53:00
2:53 PM,42.1,34.0,73,30.15,10.0,North,17.3,25.3,N/A,,Overcast,360,2011-12-22 20:53:00
3:53 PM,39.9,32.0,73,30.18,9.0,North,16.1,-,N/A,,Overcast,360,2011-12-22 21:53:00
4:53 PM,37.9,30.9,76,30.22,10.0,North,17.3,25.3,N/A,,Overcast,360,2011-12-22 22:53:00
5:53 PM,37.9,30.9,76,30.25,10.0,North,16.1,-,N/A,,Overcast,360,2011-12-22 23:53:00
6:53 PM,36.0,30.0,79,30.28,10.0,North,17.3,23.0,N/A,,Overcast,360,2011-12-23 00:53:00
7:53 PM,35.1,30.0,82,30.32,10.0,North,17.3,23.0,0.00,,Overcast,360,2011-12-23 01:53:00
8:53 PM,35.1,30.0,82,30.35,7.0,North,15.0,-,0.00,Snow,Light Snow,350,2011-12-23 02:53:00
9:33 PM,33.8,30.2,87,30.34,8.0,North,11.5,21.9,0.00,Snow,Light Snow,350,2011-12-23 03:33:00
9:53 PM,34.0,30.0,85,30.36,7.0,North,13.8,-,0.00,Snow,Light Snow,350,2011-12-23 03:53:00
10:21 PM,33.8,30.2,87,30.36,4.0,NNW,11.5,-,0.00,Snow,Light Snow,340,2011-12-23 04:21:00
10:28 PM,33.8,30.2,87,30.36,4.0,NNW,11.5,-,0.00,Snow,Light Snow,340,2011-12-23 04:28:00
10:53 PM,33.1,28.9,85,30.39,6.0,North,10.4,-,0.00,Snow,Light Snow,350,2011-12-23 04:53:00
11:53 PM,33.1,28.0,82,30.39,9.0,North,12.7,-,0.00,Snow,Light Snow,350,2011-12-23 05:53:00